Location: Briis
(48.6240°N, 2.1211°E)
Time: 11:06:56
(UTC+00:00)

USA 307 - Pass Details

Date: 25 September 2020
Orbit: 567 x 582 km, 54.0° (Epoch: 19 October)

Event Time Altitude Azimuth Distance (km) Brightness Sun altitude
Exits shadow 04:45:06 - 297° (WNW) 1,975 5.2 -10.3°
Reaches altitude 10° 04:45:23 10° 298° (WNW) 1,870 5.1 -10.3°
Maximum altitude 04:49:28 44° 11° (NNE) 788 3.8 -9.6°
Drops below altitude 10° 04:53:33 10° 85° (E) 1,868 7.2 -8.9°
Sets 04:55:53 0° 92° (E) 2,765 8.5 -8.6°
